User: anonymous
Location: Black Swamp Observatory
(41.3920°N, 84.1250°W)
Time: 19:46:52
(UTC-04:00)
Language:

MaSat-1 - Orbit

View from above orbital plane
View from above orbital plane
View from above satellite
View from above satellite

Ground track
Ground track

The orbit data is extracted from the following two-line orbital elements,

1 38081U 12006E   14261.89738256  .00123152  67877-5  11588-2 0  4186
2 38081 069.4522 101.1902 0317751 218.7932 276.7009 15.23377658137672
Epoch (UTC): 18 September 2014 21:32:13
Eccentricity: 0.0317751
inclination: 69.4522°
perigee height: 277 km
apogee height: 714 km
right ascension of ascending node: 101.1902°
argument of perigee: 218.7932°
revolutions per day: 15.23377658
mean anomaly at epoch: 276.7009°
orbit number at epoch: 13767

The dashed part of the orbit path shows where the satellite is in the earth's shadow,  

DLR